Date String (YYYY-MM-DD hh:mm:ss) UTC,Instrument flags,absolute air pressure of the measurement (hPa),sample flow rate (lpm),inlet stack bypass flow (lpm),air temperature of the measurement (°C),ambient temperature measured by the external sensor (°C),aerosol sample conditioner tube jacket temperature (°C),OPC LED temperature (°C),internal box temperature (°C),relative humidity of the measurement (%),span deviation,mass concentration of particles derived from Lorenz-Mie calculation of OPC scattering (μg/m³),mass concentration of particles derived from Lorenz-Mie calculation of OPC scattering (μg/m³),mass concentration of particles derived from Lorenz-Mie calculation of OPC scattering (μg/m³)
DateTimeUTC,F1_M11,P_M11,Q1_M11,Q2_M11,T1_M11,T2_M11,T3_M11,T4_M11,T5_M11,U1_M11,ZSPAN_M11,X0_M11,X2_M11,X1_M11
2024-05-23 14:00:00,SystemResetWarning,0819.5,5.01,000.00,027.6,026.9,000.0,035.9,029.4,012.8,0000.0,0012.83,0004.04,0002.85
2024-05-23 14:01:00,SystemResetWarning,0819.5,5.00,000.00,027.6,026.9,000.0,035.9,029.4,012.5,0000.0,0012.58,0004.02,0002.85
2024-05-23 14:02:00,SystemResetWarning,0819.5,5.00,000.00,027.7,026.9,000.0,035.9,029.4,013.3,0000.0,0012.28,0004.02,0002.85
2024-05-23 14:03:00,SystemResetWarning,0819.6,5.00,000.00,027.7,026.9,000.0,035.9,029.4,015.1,0000.0,0012.80,0004.04,0002.84
2024-05-23 14:04:00,SystemResetWarning,0819.8,5.00,000.00,027.7,026.9,000.0,035.9,029.4,015.7,0000.0,0013.59,0004.03,0002.85
2024-05-23 14:05:00,SystemResetWarning,0819.7,4.99,000.00,027.7,026.9,000.0,035.9,029.4,015.8,0000.0,0013.07,0004.01,0002.84
2024-05-23 14:06:00,SystemResetWarning,0819.8,5.00,000.00,027.7,026.9,000.0,035.9,029.4,015.9,0000.0,0013.24,0003.97,0002.83
2024-05-23 14:07:00,SystemResetWarning,0820.1,5.00,000.00,027.7,027.0,000.0,035.9,029.4,015.2,0000.0,0013.45,0003.96,0002.83
2024-05-23 14:08:00,SystemResetWarning,0820.1,5.00,000.00,027.7,027.0,000.0,035.9,029.4,014.7,0000.0,0012.81,0003.93,0002.82
2024-05-23 14:09:00,SystemResetWarning,0820.0,5.01,000.00,027.7,027.0,000.0,036.0,029.4,014.3,0000.0,0012.26,0003.92,0002.83
2024-05-23 14:10:00,SystemResetWarning,0820.1,5.00,000.00,027.7,027.0,000.0,036.0,029.5,014.2,0000.0,0012.46,0003.90,0002.83
2024-05-23 14:11:00,SystemResetWarning,0819.6,5.00,000.00,027.7,027.0,000.0,036.0,029.5,014.4,0000.0,0013.28,0003.89,0002.82
2024-05-23 14:12:00,SystemResetWarning,0819.6,5.00,000.00,027.7,027.0,000.0,036.0,029.5,014.6,0000.0,0013.19,0003.86,0002.78
2024-05-23 14:13:00,SystemResetWarning,0819.8,5.00,000.00,027.7,027.0,000.0,036.0,029.5,014.7,0000.0,0013.58,0003.85,0002.75
2024-05-23 14:14:00,SystemResetWarning,0819.8,5.00,000.00,027.8,027.0,000.0,036.0,029.5,014.7,0000.0,0013.74,0003.83,0002.73
2024-05-23 14:15:00,SystemResetWarning,0819.6,5.00,000.00,027.8,027.0,000.0,036.0,029.5,014.8,0000.0,0013.19,0003.79,0002.70
2024-05-23 14:16:00,SystemResetWarning,0819.5,5.00,000.00,027.8,027.0,000.0,036.0,029.5,014.6,0000.0,0012.92,0003.74,0002.67
2024-05-23 14:17:00,SystemResetWarning,0819.5,5.00,000.00,027.8,027.1,000.0,036.0,029.5,014.8,0000.0,0012.59,0003.74,0002.66
2024-05-23 14:18:00,SystemResetWarning,0819.7,5.00,000.00,027.8,027.1,000.0,036.0,029.5,015.5,0000.0,0012.22,0003.71,0002.64
2024-05-23 14:19:00,SystemResetWarning,0819.8,5.00,000.00,027.8,027.1,000.0,036.0,029.5,016.2,0000.0,0012.77,0003.71,0002.62
2024-05-23 14:20:00,SystemResetWarning,0819.7,5.00,000.00,027.8,027.1,000.0,036.0,029.5,016.0,0000.0,0013.20,0003.76,0002.61
2024-05-23 14:21:00,SystemResetWarning,0819.9,5.00,000.00,027.8,027.1,000.0,036.1,029.6,016.3,0000.0,0013.16,0003.81,0002.59
2024-05-23 14:22:00,SystemResetWarning,0819.8,5.01,000.00,027.8,027.1,000.0,036.1,029.6,016.9,0000.0,0012.85,0003.83,0002.57
2024-05-23 14:23:00,SystemResetWarning,0820.2,5.01,000.00,027.8,027.1,000.0,036.1,029.6,016.6,0000.0,0012.79,0003.88,0002.60
2024-05-23 14:24:00,SystemResetWarning,0819.8,5.00,000.00,027.8,027.1,000.0,036.1,029.6,015.1,0000.0,0013.54,0003.90,0002.61
2024-05-23 14:25:00,SystemResetWarning,0819.8,5.00,000.00,027.9,027.1,000.0,036.1,029.6,012.8,0000.0,0012.82,0003.89,0002.61
2024-05-23 14:26:00,SystemResetWarning,0819.5,5.01,000.00,027.9,027.2,000.0,036.1,029.6,011.8,0000.0,0012.69,0003.90,0002.60
2024-05-23 14:27:00,SystemResetWarning,0819.5,5.00,000.00,027.9,027.2,000.0,036.1,029.6,011.8,0000.0,0013.10,0003.92,0002.62
2024-05-23 14:28:00,SystemResetWarning,0819.5,4.99,000.00,027.9,027.2,000.0,036.1,029.6,011.9,0000.0,0013.87,0003.91,0002.59
2024-05-23 14:29:00,SystemResetWarning,0819.5,4.99,000.00,027.9,027.2,000.0,036.1,029.6,012.8,0000.0,0014.03,0003.92,0002.60
2024-05-23 14:30:00,SystemResetWarning,0819.8,5.00,000.00,027.9,027.2,000.0,036.1,029.6,013.7,0000.0,0013.91,0003.95,0002.62
2024-05-23 14:31:00,SystemResetWarning,0819.9,5.01,000.00,027.9,027.2,000.0,036.1,029.6,014.5,0000.0,0013.57,0003.94,0002.61
2024-05-23 14:32:00,SystemResetWarning,0819.6,5.01,000.00,027.9,027.2,000.0,036.1,029.6,015.1,0000.0,0013.58,0003.88,0002.60
2024-05-23 14:33:00,SystemResetWarning,0819.5,5.00,000.00,027.9,027.2,000.0,036.1,029.6,014.6,0000.0,0013.38,0003.89,0002.59
2024-05-23 14:34:00,SystemResetWarning,0819.6,5.00,000.00,027.9,027.2,000.0,036.1,029.7,014.8,0000.0,0012.97,0003.82,0002.56
2024-05-23 14:35:00,SystemResetWarning,0819.7,4.99,000.00,028.0,027.2,000.0,036.2,029.7,013.8,0000.0,0012.59,0003.81,0002.53
2024-05-23 14:36:00,SystemResetWarning,0819.8,5.00,000.00,028.0,027.2,000.0,036.2,029.7,013.1,0000.0,0013.55,0003.80,0002.53
2024-05-23 14:37:00,SystemResetWarning,0819.6,5.00,000.00,028.0,027.3,000.0,036.2,029.7,013.5,0000.0,0014.25,0003.82,0002.53
2024-05-23 14:38:00,SystemResetWarning,0819.7,5.00,000.00,028.0,027.3,000.0,036.2,029.7,014.4,0000.0,0014.54,0003.83,0002.52
2024-05-23 14:39:00,SystemResetWarning,0819.6,4.99,000.00,028.0,027.3,000.0,036.2,029.7,015.4,0000.0,0014.57,0003.83,0002.52
2024-05-23 14:40:00,SystemResetWarning,0819.7,5.01,000.00,028.0,027.3,000.0,036.2,029.7,016.4,0000.0,0014.98,0003.90,0002.52
2024-05-23 14:41:00,SystemResetWarning,0819.7,5.01,000.00,028.0,027.3,000.0,036.2,029.7,017.1,0000.0,0015.18,0003.89,0002.49
2024-05-23 14:42:00,SystemResetWarning,0819.6,5.00,000.00,028.0,027.3,000.0,036.2,029.7,016.3,0000.0,0016.14,0003.84,0002.49
2024-05-23 14:43:00,SystemResetWarning,0819.8,4.99,000.00,028.0,027.3,000.0,036.3,029.8,016.5,0000.0,0015.82,0003.86,0002.51
2024-05-23 14:44:00,SystemResetWarning,0819.8,4.99,000.00,028.1,027.3,000.0,036.3,029.8,016.3,0000.0,0015.65,0003.88,0002.53
2024-05-23 14:45:00,SystemResetWarning,0819.6,5.00,000.00,028.1,027.4,000.0,036.3,029.8,016.4,0000.0,0016.07,0003.95,0002.57
2024-05-23 14:46:00,SystemResetWarning,0819.9,5.00,000.00,028.1,027.4,000.0,036.3,029.8,016.0,0000.0,0015.63,0003.96,0002.58
2024-05-23 14:47:00,SystemResetWarning,0819.7,5.03,000.00,028.1,027.4,000.0,036.3,029.8,015.8,0000.0,0014.70,0003.96,0002.59
2024-05-23 14:48:00,SystemResetWarning,0819.5,4.98,000.00,028.1,027.4,000.0,036.3,029.8,015.8,0000.0,0015.12,0003.93,0002.60
2024-05-23 14:49:00,SystemResetWarning,0819.5,5.00,000.00,028.1,027.4,000.0,036.3,029.8,016.5,0000.0,0015.02,0003.93,0002.62
2024-05-23 14:50:00,SystemResetWarning,0819.5,5.00,000.00,028.1,027.4,000.0,036.3,029.9,014.9,0000.0,0014.16,0003.94,0002.64
2024-05-23 14:51:00,SystemResetWarning,0819.5,5.02,000.00,028.1,027.4,000.0,036.4,029.9,016.2,0000.0,0013.68,0003.93,0002.65
2024-05-23 14:52:00,SystemResetWarning,0819.4,5.00,000.00,028.2,027.4,000.0,036.4,029.9,015.4,0000.0,0013.53,0003.92,0002.67
2024-05-23 14:53:00,SystemResetWarning,0819.4,4.99,000.00,028.2,027.4,000.0,036.4,029.9,016.2,0000.0,0012.98,0003.98,0002.67
2024-05-23 14:54:00,SystemResetWarning,0819.5,5.00,000.00,028.2,027.4,000.0,036.4,029.9,016.3,0000.0,0014.76,0004.00,0002.68
2024-05-23 14:55:00,SystemResetWarning,0819.4,5.00,000.00,028.2,027.5,000.0,036.4,029.9,016.9,0000.0,0015.91,0004.00,0002.69
2024-05-23 14:56:00,SystemResetWarning,0819.4,5.00,000.00,028.2,027.5,000.0,036.4,029.9,017.7,0000.0,0015.46,0003.95,0002.68
2024-05-23 14:57:00,SystemResetWarning,0819.5,5.00,000.00,028.2,027.5,000.0,036.4,029.9,017.4,0000.0,0015.56,0003.94,0002.69
2024-05-23 14:58:00,SystemResetWarning,0819.5,5.00,000.00,028.2,027.5,000.0,036.4,029.9,017.7,0000.0,0015.36,0003.95,0002.70
2024-05-23 14:59:00,SystemResetWarning,0819.5,5.01,000.00,028.2,027.5,000.0,036.4,029.9,016.7,0000.0,0014.78,0003.98,0002.71
